Location: Ettringen
(48.1054°N, 10.6545°E)
Time: 01:56:44
(UTC+00:00)

Cosmos 1862 - Pass Details

Date: 18 November 2025
Orbit: 473 x 486 km, 82.5° (Epoch: 04 December)

Event Time Altitude Azimuth Distance (km) Brightness Sun altitude
Rises 17:49:45 0° 344° (NNW) 2,543 6.9 -22.1°
Reaches altitude 10° 17:51:54 10° 338° (NNW) 1,662 6.0 -22.4°
Maximum altitude 17:55:22 43° 266° (W) 689 4.2 -23.0°
Drops below altitude 10° 17:58:48 10° 194° (SSW) 1,656 5.9 -23.6°
Sets 18:00:57 0° 188° (S) 2,533 6.8 -23.9°
